Location: Young's Pond
(41.2695°N, 72.7766°W)
Time: 18:59:42
(UTC-04:00)

Spot 4 - Visible Passes

Search period start: 29 May 2016 00:00
Search period end: 08 June 2016 00:00
Orbit: 705 x 724 km, 98.4° (Epoch: 29 May)

Date Brightness Start Highest point End Pass type
(mag) Time Alt. Az. Time Alt. Az. Time Alt. Az.
29 May 4.5 22:24:57 31° ESE 22:26:27 40° ENE 22:30:55 10° N visible
30 May 5.6 00:04:06 21° WSW 00:04:33 21° W 00:08:13 10° NW visible
30 May 5.9 21:33:07 10° E 21:35:28 14° ENE 21:37:49 10° NNE visible
30 May 3.9 23:11:57 56° SSW 23:12:49 71° WSW 23:17:37 10° NNW visible
31 May 4.7 22:19:48 27° ESE 22:21:29 36° ENE 22:25:50 10° N visible
31 May 5.4 23:58:56 23° WSW 23:59:30 24° W 00:03:23 10° NW visible
01 Jun 6.0 21:28:39 10° E 21:30:32 12° ENE 21:32:25 10° NE visible
01 Jun 3.8 23:06:48 55° S 23:07:49 80° WSW 23:12:37 10° NNW visible
02 Jun 4.9 22:14:39 24° ESE 22:16:30 32° ENE 22:20:45 10° N visible
02 Jun 5.2 23:53:48 26° WSW 23:54:27 27° W 23:58:31 10° NW visible
03 Jun 6.1 21:24:21 10° ENE 21:25:36 11° ENE 21:26:50 10° NE visible
03 Jun 3.7 23:01:39 53° SSE 23:02:48 89° WSW 23:07:37 10° NNW visible
04 Jun 5.0 22:09:31 21° ESE 22:11:32 29° ENE 22:15:38 10° N visible
04 Jun 5.1 23:48:39 29° WSW 23:49:25 30° W 23:53:38 10° NW visible
05 Jun 3.7 22:56:31 49° SSE 22:57:47 82° ENE 23:02:36 10° NNW visible
06 Jun 6.3 00:36:01 10° W 00:36:20 10° W 00:36:40 10° W visible
06 Jun 5.2 22:04:23 19° ESE 22:06:34 26° ENE 22:10:31 10° N visible
06 Jun 4.9 23:43:31 32° WSW 23:44:22 34° W 23:48:44 10° NNW visible
07 Jun 3.8 22:51:23 45° SE 22:52:47 73° ENE 22:57:35 10° N visible
